Fannettsburg, PA

3:12 AM EDT on October 18, 2019 (GMT -0400)
State Game Lands 076 | | Change Station
Active Advisory: Freeze Warning

Elev 1004 ft 40.08 °N, 77.74 °W | Updated 5 seconds ago

Overcast
Overcast
46.4 °F
Feels Like 44 °F
N
4.9
Wind Variable Wind from SE
Gusts 8.0 mph

Today
High -- | Low -- °F
--% Chance of Precip.
Yesterday
High -- | Low -- °F
Precip. -- in
Pressure 29.91 in
Visibility 10.0 miles
Clouds Overcast 4000 ft
Windchill 44 °F
Dew Point 38 °F
Humidity 72%
Rainfall 0.00 in
Snow Depth Not available.
7:24 AM 6:27 PM
Waning Gibbous, 82% visible
METAR KHGR 180653Z AUTO 31007KT 10SM OVC040 09/02 A2987 RMK AO2 SLP127 T00940017
Pressure 29.91 in
Visibility 10.0 miles
Clouds Overcast 4000 ft
Windchill 44 °F
Dew Point 38 °F
Humidity 72%
Rainfall 0.00 in
Snow Depth Not available.
7:24 AM 6:27 PM
Waning Gibbous, 82% visible
METAR KHGR 180653Z AUTO 31007KT 10SM OVC040 09/02 A2987 RMK AO2 SLP127 T00940017

Get Your Daily Forecast Email!

Thanks for signing up!

Be on the lookout for a verification email in your inbox.

You'll start receiving severe weather alerts in your inbox..

×

10-Day Weather Forecast

Almanac

Astronomy

Oct. 18, 2019 Rise Set
Actual Time
Civil Twilight
Nautical Twilight
Astronomical Twilight
Moon
Length of Visible Light
Length of Day
Tomorrow will be .
, % of the Moon is Illuminated

Today's Extremes

State Highs State Lows

Community

WunderPhotos

Category 6

Welcome to Category 6. This is the collective home for Weather Underground's featured writeups by Dr. Jeff Masters (right), Bob Henson (left), Chris Burt, and other regular contributors.

Nearby

Air Quality

  Air Quality AQ Index Pollutant
Not available.

Snow Depth

Station Depth Elevation

Earthquake Activity

City Distance Mag. Time & Date
Minimum magnitude displayed is 2.5.

Coastal Water Temperatures

Place Temperature

Stations

Nearby Weather Stations

Station Location Temp. Windchill Dew Point Humidity Wind Precip. Elev Updated Type
                   

Watches & Warnings

Freeze Warning
Issued: 2:48 AM EDT Oct. 18, 2019 – National Weather Service

... Freeze warning in effect from 2 am to 8 am EDT Saturday...

* what... temperatures at or just below freezing.

* Where... southern centre, Blair, Huntingdon, Mifflin, Bedford,
Fulton and Franklin counties.

* When... from 2 am to 8 am EDT Saturday.

* Impacts... frost and freeze conditions will kill crops, and other
sensitive vegetation.

* Additional details... valley locations and sheltered areas will
experience the coldest temperatures. This will likely bring and
end to the growing season.

Precautionary/preparedness actions...

Take protective measures now as freezing temperatures could
damage or kill tender plants and vegetation. Potted plants should
be brought inside.

The latest forecast information can be found on the NWS State
College facebook Page and twitter @nwsstatecollege, or on the web
at weather.Gov/ctp.